International Falls, MN

6:50 PM CDT on July 20, 2017 (GMT -0500)
Falls International

Weather History for KINL - September, 2013

Change the Weather History Date:

Saturday, September 14, 2013

  Actual Average Record
Temperature  
Mean Temperature 62 °F 54 °F  
Max Temperature 73 °F 66 °F 88 °F (1920)
Min Temperature 51 °F 42 °F 27 °F (2011)
Degree Days  
Heating Degree Days 3 11  
Month to date heating degree days 85 121  
Since 1 July heating degree days 305 302  
Cooling Degree Days 0 0  
Month to date cooling degree days 7 9  
Year to date cooling degree days 220 190  
Growing Degree Days 12 (Base 50)    
Moisture  
Dew Point 54 °F    
Average Humidity 75    
Maximum Humidity 93    
Minimum Humidity 57    
Precipitation  
Precipitation 0.24 in 0.11 in 1.36 in (1965)
Month to date precipitation 1.28 1.42  
Year to date precipitation 26.39 18.38  
Snow  
Snow 0.00 in 0.00 in 0.30 in (1964)
Month to date snowfall 0.0 0.0  
Since 1 July snowfall 0.0 0.0  
Since 1 September snowfall 0.0 0.0  
Snow Depth 0.00 in    
Sea Level Pressure  
Sea Level Pressure 29.90 in    
Wind  
Wind Speed 7 mph (West)    
Max Wind Speed 15 mph    
Max Gust Speed 22 mph    
Visibility 9 miles    
Events Rain    
T = Trace of Precipitation, MM = Missing Value Source: NWS Daily Summary

Daily Weather History Graph

Daily Weather History Graph

Search for Another Location

Airport or City:

Trip Planner

Search our weather history database for the weather conditions in past years. The results will help you decide how hot, cold, wet, or windy it might be!

Date:

Astronomy

Sep. 14, 2013 Rise Set
Actual Time 6:49 AM CDT 7:27 PM CDT
Civil Twilight 6:17 AM CDT 7:59 PM CDT
Nautical Twilight 5:40 AM CDT 8:36 PM CDT
Astronomical Twilight 5:00 AM CDT 9:16 PM CDT
Moon 4:27 PM CDT (9/14) 1:01 AM CDT (9/14)
Length of Visible Light 13h 41m
Length of Day
12h 38m
Waxing Gibbous, 72% of the Moon is Illuminated
Sep 14
Waxing Gibbous
Sep 19
Full
Sep 26
Last Quarter
Oct 4
New
Oct 11
First Quarter

Hourly Weather History & Observations

Time (CDT) Temp. Dew Point Humidity Pressure Visibility Wind Dir Wind Speed Gust Speed Precip Events Conditions
12:55 AM 51.1 °F 46.9 °F 86% 29.96 in 10.0 mi Calm Calm - N/A   Clear
1:55 AM 52.0 °F 46.9 °F 83% 29.95 in 10.0 mi Variable 5.8 mph - N/A   Clear
2:55 AM 52.0 °F 46.9 °F 83% 29.94 in 10.0 mi South 6.9 mph - N/A   Clear
3:55 AM 52.0 °F 46.9 °F 83% 29.92 in 10.0 mi South 5.8 mph - N/A   Clear
4:55 AM 52.0 °F 46.9 °F 83% 29.91 in 10.0 mi Variable 6.9 mph - N/A   Clear
5:55 AM 51.1 °F 46.9 °F 86% 29.91 in 10.0 mi SSW 5.8 mph - N/A   Clear
6:55 AM 51.1 °F 46.9 °F 86% 29.90 in 10.0 mi Variable 5.8 mph - N/A   Clear
7:55 AM 52.0 °F 46.9 °F 83% 29.89 in 10.0 mi SSW 8.1 mph - N/A   Clear
8:55 AM 57.0 °F 48.9 °F 74% 29.88 in 10.0 mi SSW 9.2 mph - N/A   Clear
9:55 AM 62.1 °F 51.1 °F 67% 29.87 in 10.0 mi SSW 12.7 mph 18.4 mph N/A   Clear
10:55 AM 64.0 °F 52.0 °F 65% 29.85 in 10.0 mi SSW 9.2 mph 19.6 mph N/A   Clear
11:55 AM 70.0 °F 54.0 °F 57% 29.83 in 10.0 mi SW 13.8 mph 17.3 mph N/A   Clear
12:55 PM 70.0 °F 55.0 °F 59% 29.82 in 10.0 mi SW 10.4 mph - N/A   Clear
1:55 PM 72.0 °F 55.9 °F 57% 29.83 in 10.0 mi West 6.9 mph - N/A   Partly Cloudy
2:55 PM 70.0 °F 55.9 °F 61% 29.85 in 10.0 mi West 9.2 mph - N/A   Overcast
3:55 PM 68.0 °F 57.0 °F 68% 29.86 in 10.0 mi NNW 8.1 mph - N/A   Overcast
4:55 PM 66.0 °F 57.9 °F 75% 29.87 in 6.0 mi North 5.8 mph - 0.00 in Rain Light Rain
5:08 PM 62.6 °F 57.2 °F 82% 29.87 in 2.5 mi North 5.8 mph - 0.06 in Rain Heavy Rain
5:18 PM 62.6 °F 59.0 °F 88% 29.86 in 5.0 mi Calm Calm - 0.08 in Rain Rain
5:55 PM 61.0 °F 59.0 °F 93% 29.86 in 10.0 mi SSW 3.5 mph - 0.08 in   Overcast
6:55 PM 62.1 °F 60.1 °F 93% 29.90 in 8.0 mi North 4.6 mph - 0.01 in Rain Light Rain
7:24 PM 60.8 °F 60.8 °F 100% 29.88 in 10.0 mi Calm Calm - 0.00 in   Overcast
7:55 PM 60.1 °F 59.0 °F 96% 29.91 in 8.0 mi Calm Calm - 0.00 in   Overcast
8:10 PM 60.8 °F 60.8 °F 100% 29.90 in 2.5 mi WNW 3.5 mph - 0.01 in Rain Heavy Rain
8:18 PM 60.8 °F 59.0 °F 94% 29.90 in 10.0 mi WNW 3.5 mph - 0.09 in Rain Rain
8:55 PM 60.1 °F 59.0 °F 96% 29.92 in 10.0 mi Calm Calm - 0.15 in Rain Light Rain
9:02 PM 60.8 °F 59.0 °F 94% 29.91 in 10.0 mi Calm Calm - 0.00 in   Overcast
9:55 PM 60.1 °F 57.9 °F 93% 29.92 in 10.0 mi North 3.5 mph - 0.00 in   Overcast
10:55 PM 59.0 °F 57.9 °F 96% 29.94 in 10.0 mi Calm Calm - N/A   Overcast
11:03 PM 59.0 °F 57.2 °F 94% 29.93 in 10.0 mi WNW 3.5 mph - N/A   Overcast
11:13 PM 59.0 °F 57.2 °F 94% 29.94 in 10.0 mi NNW 8.1 mph - N/A   Overcast
11:52 PM 59.0 °F 55.4 °F 88% 29.96 in 10.0 mi NNE 11.5 mph 18.4 mph N/A   Overcast
11:55 PM 59.0 °F 55.0 °F 87% 29.96 in 10.0 mi NNE 8.1 mph 18.4 mph N/A   Overcast